Regional Weather Roundup
Issued by NWS Midland/Odessa, TX

Home | Current Version | Previous Version | Text Only | Print | Product List | Glossary On
Versions: 1 2 3 4 5 6 7 8 9 10 11 12 13 14 15 16 17 18 19 20 21 22 23 24 25 26 27 28 29 30 31 32 33 34 35 36 37 38 39 40 41 42 43 44 45 46 47 48 49 50
000
ASUS44 KMAF 281610
RWRMAF
MIDLAND AREA WEATHER ROUNDUP
NATIONAL WEATHER SERVICE MIDLAND TX
1100 AM CDT TUE JUL 28 2015

...IN SOUTHWEST TEXAS AND SOUTHEAST NEW MEXICO...

CITY           SKY/WX    TMP DP  RH WIND       PRES   REMARKS
ALPINE         SUNNY     85  58  39 SW7       30.16F
ANDREWS        FAIR      88  65  47 S10G17    30.01F
ARTESIA        SUNNY     90  61  37 VRB3      30.00S
BIG SPRING     SUNNY     83  65  53 S12G18    30.02S
CARLSBAD       SUNNY     91  60  35 SE8       29.97F
DRYDEN           N/A     84  71  65 VRB3      29.99F
FORT STOCKTON  SUNNY     90  63  40 SE8       30.00S
GUAD PASS      SUNNY     82  56  40 SW20      30.17S
HOBBS          SUNNY     86  61  42 S9        30.04F
MARFA          SUNNY     81  61  50 S3        30.15S
MIDLAND AIRPK  SUNNY     89  66  47 S12G17    30.00F
MIDLAND INTL   SUNNY     87  68  52 S13       29.99F
ODESSA         SUNNY     87  66  49 S13       30.01F
PECOS          SUNNY     92  56  30 S8        29.96F
PRESIDIO       FAIR      89  58  35 MISG      30.00S
SEMINOLE       SUNNY     88  63  42 S10       30.03S
SNYDER         SUNNY     85  70  61 S13       30.00S
WINK           SUNNY     91  60  35 S10       29.96F
$$
...OTHER STATIONS IN TEXAS...

CITY           SKY/WX    TMP DP  RH WIND       PRES   REMARKS
ABILENE        SUNNY     87  70  56 S12       29.98F
AMARILLO       SUNNY     86  63  45 SW15      30.02S
AUSTIN         MOSUNNY   87  73  62 S12       29.98F
BROWNSVILLE    MOSUNNY   89  75  63 S20       29.95S
CORPUS CHRISTI MOSUNNY   89  76  65 SE18      29.95S HX 100
DALLAS FTW     MOSUNNY   90  68  48 S16       29.96S
DEL RIO        CLOUDY    80  72  76 SE14      29.96S
EL PASO        PTSUNNY   87  55  33 CALM      30.05F
HOUSTON INT    MOSUNNY   91  71  51 SE7       30.00F
LUBBOCK        SUNNY     86  64  47 SW15      30.01F
SAN ANGELO     SUNNY     88  66  48 S10       29.98F
SAN ANTONIO    MOSUNNY   86  72  62 S13       29.99S
WACO           SUNNY     88  71  57 S13       29.98F
WICHITA FALLS  NOT AVBL
$$
...OTHER LOCATIONS IN NEW MEXICO...

CITY           SKY/WX    TMP DP  RH WIND       PRES   REMARKS
ALAMAGORDO     MOSUNNY   84  55  37 CALM      30.08F
ALBUQUERQUE    MOSUNNY   79  51  37 SW10      30.17S
CANNON AFB     SUNNY     82  61  48 W7        30.06S
CLOVIS         SUNNY     84  61  45 SW8       30.06F
HOLLOMAN AFB   MOSUNNY   87  56  35 SW2       30.06F
ROSWELL        SUNNY     87  59  38 NE7       30.00F
RUIDOSO          N/A    N/A N/A N/A MISG        N/A
SANTA FE       SUNNY     80  48  32 SW7       30.22S
TRUTH OR CONSE PTSUNNY   85  49  28 NW8       30.11F
TUCUMCARI      SUNNY     86  58  38 W6        30.02F
$$



USA.gov is the U.S. government's official web portal to all federal, state and local government web resources and services.